Theta_e
300 300 300 300 300 300 300 300 300 300 300 300 300 301 301 302 302 303 303 304 306 307 309 310 311 316 320 324 323 323 323 322 321 322 321 324 326 327 326 326 326 328 329 327 330
300 300 300 300 300 300 300 300 300 300 300 300 300 301 301 301 302 302 308 306 307 305 307 307 315 314 321 325 325 326 325 323 321 321 323 323 326 326 326 326 327 327 328 328 329
300 300 300 300 300 300 300 300 300 300 301 302 302 301 301 301 301 306 310 308 306 304 306 307 308 320 320 321 325 325 327 324 322 321 322 323 323 324 325 326 325 326 327 327 327
300 300 300 300 300 300 300 300 301 302 302 303 304 303 302 301 303 308 310 309 306 304 305 310 309 313 317 321 321 324 325 325 324 323 324 324 324 326 326 325 324 326 327 328 327
300 300 300 300 301 300 300 301 303 304 303 303 303 304 303 302 303 302 305 304 304 304 305 310 309 313 316 318 319 323 323 324 326 325 325 326 327 327 328 327 328 329 328 328 327
300 300 300 301 302 301 301 303 304 304 305 304 304 303 304 306 305 307 309 308 307 307 307 305 314 311 313 315 318 320 321 322 323 327 328 328 328 328 328 328 327 327 327 327 326
300 300 300 301 301 302 302 303 304 305 305 305 305 304 305 305 307 308 308 308 308 308 307 308 305 311 312 312 314 316 319 319 321 324 325 326 325 327 326 326 326 326 326 326 326
300 301 301 301 302 302 302 303 304 304 304 305 305 305 307 307 307 307 307 307 308 308 308 308 304 305 312 314 313 315 316 318 320 318 319 321 326 327 325 325 325 326 326 325 325
301 301 301 301 302 302 303 303 304 305 305 306 306 306 307 307 307 307 307 307 307 307 307 307 304 305 311 314 314 315 318 319 319 320 320 320 324 325 324 323 325 325 325 325 325
300 300 301 300 302 302 303 303 305 305 305 306 307 308 306 307 307 307 308 307 307 306 307 307 307 309 310 314 316 316 316 318 320 320 319 320 322 323 323 322 323 324 324 324 324
300 300 301 301 303 304 305 303 304 305 305 305 306 306 307 307 307 308 307 306 306 307 309 308 307 309 310 313 314 315 316 317 318 319 320 321 323 323 322 322 322 323 323 323 323
299 301 301 301 303 306 306 304 306 306 307 305 305 305 306 306 306 308 307 307 307 308 307 307 308 308 309 310 312 314 315 315 316 316 318 320 322 322 321 321 321 322 322 322 322
300 302 302 301 301 305 307 306 307 307 306 306 305 305 307 306 307 308 308 307 307 307 308 308 308 308 308 309 311 312 314 315 316 316 317 317 319 319 319 319 318 318 318 318 318
300 305 306 301 303 305 307 307 307 307 307 306 307 307 306 306 307 308 309 309 306 306 307 307 308 306 307 309 310 312 312 313 314 315 317 316 319 320 320 320 319 318 318 318 318
303 306 304 302 304 307 307 307 307 305 306 306 307 306 307 307 307 308 308 310 310 310 306 308 306 306 307 309 310 311 311 313 314 315 316 316 316 318 318 319 319 320 318 317 317
306 304 305 308 308 308 308 308 306 307 306 307 306 307 307 307 307 307 308 310 311 311 311 309 307 306 306 308 309 310 311 311 312 313 315 315 316 317 318 318 318 318 317 317 317
307 308 308 308 309 308 308 307 307 308 307 308 307 307 307 308 307 307 308 312 312 313 313 310 309 309 307 307 307 308 310 311 312 312 313 314 315 316 318 317 317 317 317 317 317
307 309 308 308 308 308 308 305 307 307 307 307 307 307 307 307 307 307 307 310 311 311 314 311 312 309 309 308 307 308 309 311 311 312 312 312 314 315 316 316 316 316 316 317 318
306 309 308 308 308 308 306 309 307 307 307 308 308 308 307 306 307 307 307 309 310 310 312 313 313 310 311 310 308 308 308 310 310 311 312 313 313 314 315 316 317 316 316 317 319
305 309 309 308 307 307 307 308 308 307 307 307 308 308 308 307 307 307 307 309 309 309 310 311 312 310 310 310 309 309 310 308 309 310 311 313 314 315 316 315 316 316 316 317 322
305 309 307 307 306 306 309 307 307 307 307 307 308 308 308 308 307 307 308 308 307 309 309 310 310 310 310 310 310 310 310 310 310 310 311 312 314 316 316 316 316 316 315 316 319
302 310 307 305 308 302 307 305 305 307 307 307 308 308 308 307 308 307 307 308 307 307 308 309 311 311 310 309 309 309 309 309 312 311 311 312 312 314 315 314 315 316 315 316 318
302 304 306 303 307 306 305 305 305 307 307 307 308 307 306 307 308 307 307 306 306 307 308 309 309 309 308 312 310 310 310 310 310 311 313 312 312 314 314 315 315 315 315 315 317
300 306 302 302 302 304 304 305 306 306 307 306 306 306 307 307 306 307 306 306 306 307 308 309 310 310 310 309 310 311 310 310 311 313 312 313 313 314 314 315 315 315 316 316 317
301 303 302 305 303 302 303 303 305 306 307 306 307 306 308 308 306 306 307 307 306 307 307 309 310 309 309 309 309 310 310 311 311 311 312 311 312 313 314 315 315 315 316 316 318
301 302 301 301 300 303 303 305 305 307 305 306 307 307 307 307 307 307 306 307 308 307 308 309 310 309 309 308 308 309 309 310 311 311 311 311 311 311 312 311 312 314 317 318 320
303 301 300 302 302 303 303 304 304 303 305 305 306 307 307 307 305 306 306 306 306 307 309 309 310 309 308 307 310 311 311 311 311 311 311 312 311 311 311 312 314 318 319 319 321
Wind_Speed
13 12 12 12 12 12 12 12 13 13 13 14 15 16 16 18 17 16 16 12 16 18 17 18 15 10 15 12 14 10 8 13 17 13 11 2 6 2 4 8 8 4 6 15 1
13 14 14 14 14 13 13 13 13 14 15 17 16 16 16 17 18 16 4 8 3 11 19 18 11 15 12 11 12 12 11 20 8 15 10 13 6 8 7 12 10 13 6 9 10
17 17 17 17 17 16 15 14 15 15 16 16 18 18 17 18 12 2 3 1 10 13 7 17 18 14 16 10 14 12 20 21 17 19 18 21 21 13 14 19 19 12 10 18 14
20 20 20 21 20 18 15 15 15 14 16 16 18 19 19 14 4 0 5 13 16 14 7 4 16 14 12 18 21 15 24 28 17 19 12 16 20 15 18 32 19 17 23 22 21
20 20 20 21 20 17 16 15 16 17 17 15 17 19 19 13 5 4 16 18 21 15 9 4 13 15 15 12 21 25 21 18 24 24 17 15 21 16 22 31 23 24 28 26 20
19 19 20 20 19 17 15 12 14 19 17 15 16 18 16 7 11 10 13 9 12 12 9 9 4 12 12 19 20 15 24 30 23 15 12 17 27 18 20 27 18 19 27 30 24
18 19 19 20 19 19 15 14 16 17 19 17 17 17 11 4 16 15 13 16 17 15 16 10 14 10 4 13 17 27 18 9 16 27 20 19 30 30 33 31 31 28 28 28 25
20 19 19 20 19 18 17 16 17 20 19 14 17 11 6 16 18 17 19 17 15 14 14 7 14 11 12 10 10 11 17 22 25 13 8 15 30 29 17 25 28 28 28 20 19
20 19 18 18 18 17 18 16 18 14 6 10 7 6 4 17 19 22 22 21 16 11 11 6 7 9 8 12 9 14 21 25 26 22 14 16 31 24 23 24 23 24 25 23 22
22 20 19 18 16 17 18 18 12 6 9 7 5 5 4 18 23 23 18 15 17 11 5 4 8 9 13 16 21 22 27 25 24 10 22 19 34 21 23 17 23 24 24 24 26
25 23 19 16 13 13 16 13 8 2 13 7 8 8 19 17 23 17 11 11 10 8 9 6 9 21 24 21 24 12 16 23 18 13 14 23 30 26 25 29 31 35 34 33 31
27 25 19 14 8 8 13 8 6 6 10 14 14 17 13 14 10 14 9 3 6 15 6 5 18 18 14 15 20 24 21 11 10 5 9 19 26 19 13 19 25 28 30 32 33
27 25 19 12 8 4 8 8 7 9 3 11 5 9 9 11 8 9 5 6 8 13 13 13 14 8 16 19 18 20 25 20 9 4 10 11 20 21 17 22 27 29 30 31 33
27 26 19 9 3 4 2 10 12 4 2 3 2 1 11 13 5 16 7 6 4 11 14 11 15 14 17 19 20 21 14 19 18 11 13 4 13 17 17 19 18 22 25 31 28
26 21 14 3 2 4 4 9 10 4 4 6 2 7 19 4 11 4 12 4 11 15 7 16 10 10 18 16 15 17 7 11 11 16 15 20 11 22 17 21 23 20 27 26 32
20 13 9 8 7 7 10 11 6 3 3 2 5 10 14 8 16 9 12 5 6 8 13 18 18 7 8 11 14 10 18 18 10 10 14 18 13 21 18 21 20 14 19 21 22
12 6 7 8 7 11 14 4 2 3 5 4 7 11 15 7 12 10 13 7 5 6 6 9 18 16 13 12 6 10 12 9 11 11 17 11 12 21 11 11 7 5 11 16 17
7 3 6 7 9 13 11 2 2 1 4 7 7 16 4 9 8 12 9 7 2 1 5 3 5 6 3 13 13 14 14 10 17 13 14 13 13 9 17 19 21 17 8 13 15
6 4 3 7 10 12 5 2 1 2 4 8 14 4 3 5 6 9 10 7 4 5 6 5 3 9 6 9 12 10 11 14 4 1 8 11 22 18 14 11 8 6 8 20 25
7 5 3 7 12 9 1 1 2 2 5 5 5 3 5 8 9 11 6 3 9 8 4 4 7 5 9 9 5 6 7 10 6 7 9 8 17 9 3 13 2 8 14 21 26
7 2 7 7 10 5 2 2 4 5 5 3 4 8 8 11 6 8 6 8 7 9 8 7 3 2 4 4 6 3 6 4 6 10 7 6 4 6 18 7 7 8 15 24 25
8 0 7 10 3 2 1 5 5 5 3 5 5 6 6 6 7 7 7 6 9 10 9 4 5 6 7 5 4 9 6 2 6 18 12 8 5 7 10 7 12 15 24 27 23
9 4 6 8 2 2 5 4 4 4 5 3 4 1 5 5 6 7 9 10 15 8 4 6 1 6 7 5 5 1 4 4 6 6 15 14 9 8 5 13 16 22 27 29 27
8 4 5 8 5 2 5 3 4 7 7 1 9 8 5 8 9 10 12 8 8 7 12 12 5 9 9 8 9 11 11 10 7 9 14 19 19 24 21 21 22 28 27 28 25
9 3 4 4 3 7 3 5 7 4 3 7 4 6 5 6 17 17 12 12 9 7 14 6 10 11 14 17 18 18 19 18 17 17 14 16 19 22 20 18 22 26 29 29 26
6 5 5 6 9 6 3 3 8 5 4 7 5 11 13 14 17 23 21 17 8 6 4 3 6 10 17 15 18 19 19 19 21 21 23 22 23 21 28 31 28 25 27 27 25
10 5 2 5 4 4 2 3 7 15 10 14 13 15 16 17 20 27 27 27 12 4 6 5 5 3 6 6 7 11 18 21 19 18 17 21 19 18 25 21 22 24 26 28 29
Wind_Direction
9 8 6 2 357 353 349 347 342 339 336 332 329 328 328 323 316 306 303 267 261 255 243 249 238 222 196 199 201 194 231 242 233 217 226 233 237 270 300 277 304 340 104 12 120
6 6 3 359 354 350 347 343 339 338 336 334 332 332 336 329 320 310 222 259 260 298 249 237 227 214 208 210 195 201 227 234 228 229 230 236 226 294 298 295 285 306 230 21 36
3 1 358 355 351 348 343 337 337 338 336 335 334 337 338 336 334 109 132 226 332 343 331 230 216 203 213 207 201 207 235 235 231 228 231 246 258 248 272 276 271 271 275 305 312
1 358 356 353 350 346 344 342 341 341 339 339 341 344 344 346 17 139 290 290 292 319 328 319 209 206 224 216 217 237 229 241 248 242 232 237 252 252 249 256 269 269 284 286 285
1 357 355 352 354 351 347 348 345 347 343 339 343 349 348 331 329 286 309 296 295 296 295 253 222 222 223 220 228 235 239 242 243 250 250 261 247 247 255 262 263 272 277 273 273
359 356 355 356 1 2 356 358 346 345 349 351 360 345 342 343 354 350 344 347 339 335 339 257 232 236 262 244 224 236 242 245 245 238 236 251 265 241 252 258 257 261 266 271 271
357 354 355 356 358 1 358 354 344 339 336 339 343 340 332 5 343 357 325 327 327 332 344 299 236 245 252 253 258 250 255 238 236 238 247 252 278 245 248 259 262 259 262 266 267
356 353 352 352 351 353 351 343 333 327 318 318 330 333 288 358 356 356 341 325 309 307 333 324 219 257 234 276 260 242 236 244 237 210 226 187 259 265 231 246 253 266 267 262 263
354 353 351 349 349 348 346 341 329 326 344 334 333 336 303 343 339 337 339 324 306 283 322 274 203 222 238 227 250 225 235 227 239 213 199 193 254 257 260 244 249 251 264 274 280
350 349 350 346 348 350 352 347 346 0 1 355 358 329 348 331 329 322 331 309 293 281 289 197 189 216 220 207 219 226 228 236 237 219 214 217 249 252 264 266 268 263 265 271 274
345 342 342 342 343 357 356 358 360 322 316 263 285 273 288 320 319 326 327 303 256 257 266 215 222 221 223 228 247 259 264 245 259 231 209 221 244 250 247 259 262 270 275 276 278
341 337 335 334 326 4 2 25 33 338 311 301 282 274 304 304 289 335 338 269 239 242 186 221 234 251 250 249 244 246 255 266 252 245 235 244 250 253 249 255 257 264 270 274 280
338 333 330 328 310 313 2 15 358 329 274 299 267 279 325 318 286 318 320 320 268 264 234 240 264 251 248 239 244 237 240 240 250 291 249 274 267 254 247 249 254 259 264 267 268
338 331 325 326 326 323 345 347 332 296 274 281 279 30 336 313 266 312 295 290 236 271 248 245 255 238 238 238 229 242 236 240 239 253 243 202 275 259 252 252 252 260 263 264 271
342 341 333 351 22 5 333 324 316 157 308 345 348 320 330 312 324 331 336 230 286 277 257 243 274 232 225 234 226 235 206 203 216 228 243 240 263 261 254 257 257 256 257 267 267
349 10 51 66 41 360 336 329 149 223 261 351 330 340 346 330 343 311 336 284 280 283 261 258 252 280 287 213 219 227 215 237 251 246 236 232 231 268 248 258 263 265 262 273 279
351 37 44 30 3 348 344 133 241 232 348 345 326 331 324 316 330 334 329 354 360 311 278 269 239 242 254 256 220 212 189 191 216 217 237 215 220 245 263 264 271 223 322 309 294
349 93 46 25 358 345 347 146 242 46 308 326 325 316 295 355 339 331 316 317 106 241 284 325 265 182 332 230 240 213 199 206 219 216 231 210 230 241 230 267 272 264 313 337 333
354 166 53 10 354 344 337 79 303 315 333 314 319 307 319 355 335 330 317 300 332 359 335 313 240 286 286 318 228 198 213 223 278 156 227 197 243 269 258 275 257 295 326 352 347
1 162 32 346 343 344 49 292 266 310 329 315 297 304 307 327 323 339 307 321 341 351 328 303 298 165 294 331 192 245 216 194 211 206 208 207 239 232 197 209 18 35 4 346 352
12 149 359 349 339 33 66 286 291 298 335 308 289 296 293 315 306 318 279 309 4 341 340 328 274 291 288 194 279 238 234 245 244 238 243 241 218 218 224 97 47 14 352 353 348
2 25 357 353 40 46 352 314 302 296 322 298 270 309 306 331 303 289 259 285 326 333 325 325 299 289 270 270 262 251 285 257 250 215 239 279 278 114 119 69 8 350 347 345 345
351 319 350 2 45 3 321 294 274 293 321 315 294 240 272 284 293 258 271 282 307 294 299 352 308 312 312 158 128 202 197 236 254 262 249 239 229 189 262 324 339 335 337 338 337
355 342 358 52 82 38 338 320 311 295 293 288 270 275 250 274 265 275 274 290 282 292 297 313 260 254 266 294 305 292 289 283 271 250 247 243 258 269 284 308 319 328 330 327 327
13 36 0 326 6 327 297 299 288 311 288 300 252 244 282 294 304 279 281 292 268 264 295 271 256 252 255 265 276 276 277 277 261 254 251 261 253 265 285 298 311 313 314 316 319
21 4 339 293 299 296 274 264 295 314 302 291 252 290 301 284 287 289 291 280 260 229 227 248 264 252 268 267 260 266 263 262 258 257 256 259 262 269 278 281 282 296 301 303 306
3 330 294 293 314 310 278 309 306 325 286 247 285 299 292 293 295 284 280 275 250 219 217 218 238 240 263 285 301 276 254 246 255 256 257 257 264 261 268 272 277 292 293 294 297